Probability
0 0 0 0 0 0 0 0 0 0 0 0 0 0 0 0 0 0 0 0 0 0 0 0 0 0 0 0 0 0 0 0 0 0 3 3 0 0 0 0 0 0 0 0
0 0 0 0 0 0 0 0 0 0 0 0 0 0 0 0 0 0 0 0 0 0 0 0 0 0 0 0 0 0 0 0 0 0 0 3 0 0 0 0 0 0 0 0
0 0 0 0 0 0 0 0 0 0 0 0 0 0 0 0 0 0 0 0 0 0 0 0 0 0 0 0 0 0 0 0 0 0 0 0 0 0 0 0 0 0 0 0
0 0 0 0 0 0 0 0 0 0 0 0 0 0 0 0 0 0 0 0 0 0 0 0 0 0 0 0 0 0 0 0 0 0 0 0 0 0 0 0 0 0 0 0
0 0 0 0 0 0 0 0 0 0 0 0 0 0 0 0 0 0 0 0 0 0 0 0 0 0 0 0 0 0 0 0 0 0 0 0 0 0 0 0 0 0 0 0
0 0 0 0 0 0 0 0 0 0 0 0 0 0 0 0 0 0 0 0 0 0 0 0 0 0 0 0 0 0 0 0 0 0 0 0 0 0 0 0 0 0 0 0
0 0 0 0 0 0 0 0 0 0 0 0 0 0 0 0 0 0 0 0 0 0 0 0 0 0 0 0 0 0 0 0 0 0 0 0 0 0 0 0 0 0 0 0
0 0 0 0 0 0 0 0 0 0 0 0 0 0 0 0 0 0 0 0 0 0 0 0 0 0 0 0 0 0 0 0 0 0 0 0 0 0 0 0 0 0 0 0
0 0 0 0 0 0 0 0 0 0 0 0 0 0 0 0 0 0 0 0 0 0 0 0 0 0 0 0 0 0 0 0 0 0 0 0 0 0 0 0 0 0 0 0
0 0 0 0 0 0 0 0 0 0 0 0 0 0 0 0 0 0 0 0 0 0 0 0 0 0 0 0 0 0 0 0 0 0 0 0 0 0 0 0 0 0 0 0
0 0 0 0 0 0 0 0 0 0 0 0 0 0 0 0 0 0 0 0 0 0 0 0 0 0 0 0 0 0 0 0 0 0 0 0 0 0 0 0 0 0 0 0
0 0 0 0 0 0 0 0 0 0 0 0 0 0 0 0 0 0 0 0 0 0 0 0 0 0 0 0 0 0 0 0 0 0 0 0 0 0 0 0 0 0 0 0
0 0 0 0 0 0 0 0 0 0 0 0 0 0 0 0 0 0 0 0 0 0 0 0 0 0 0 0 0 0 0 0 0 0 0 0 0 0 0 0 0 0 0 0
0 0 0 0 0 0 0 0 0 0 0 0 0 0 0 0 0 0 0 0 0 0 0 0 0 0 0 0 0 0 0 0 0 0 0 0 0 0 0 0 0 0 0 0
0 0 0 0 0 0 0 0 0 0 0 0 0 0 0 0 0 0 0 0 0 0 0 0 0 0 0 0 0 0 0 0 0 0 0 0 0 0 0 0 0 0 0 0
0 0 0 0 0 0 0 0 0 0 0 0 0 0 0 0 0 0 0 0 0 0 0 0 0 0 0 0 0 0 0 0 0 0 0 0 0 0 0 0 0 0 0 0
0 0 0 0 0 0 0 0 0 0 0 0 0 0 0 0 0 0 0 0 0 0 0 0 0 0 0 0 0 0 0 0 0 0 0 0 0 0 0 0 0 0 0 0
0 0 0 0 0 0 0 0 0 0 0 0 0 0 0 0 0 0 0 0 0 0 0 0 0 0 0 0 0 0 0 0 0 0 0 0 0 0 0 0 0 0 0 0
0 0 0 0 0 0 0 0 0 0 0 0 0 0 0 0 0 0 0 0 0 0 0 0 0 0 0 0 0 0 0 0 0 0 0 0 0 0 0 0 0 0 0 0
0 0 0 0 0 0 0 0 0 0 0 0 0 0 0 0 0 0 0 0 0 0 0 0 0 0 0 0 0 0 0 0 0 0 0 0 0 0 0 0 0 0 0 0
0 0 0 0 0 0 0 0 0 0 0 0 0 0 0 0 0 0 0 0 0 0 0 0 0 0 0 0 0 0 0 0 0 0 0 0 0 0 0 0 0 0 0 0
0 0 0 0 0 0 0 0 0 0 0 0 0 0 0 0 0 0 0 0 0 0 0 0 0 0 0 0 0 0 0 0 0 0 0 0 0 0 0 0 0 0 0 0
0 0 0 0 0 0 0 0 0 0 0 0 0 0 0 0 0 0 0 0 0 0 0 0 0 0 0 0 0 0 0 0 0 0 0 0 0 0 0 0 0 0 0 0
0 0 0 0 0 0 0 0 0 0 0 0 0 0 0 0 0 0 0 0 0 0 0 0 0 0 0 0 0 0 0 0 0 0 0 0 0 0 0 0 0 0 0 0
0 0 0 0 0 0 0 0 0 0 0 0 0 0 0 0 0 0 0 0 0 0 0 0 0 0 0 0 0 0 0 0 0 0 0 0 0 0 0 0 0 0 0 0
0 0 0 0 0 0 0 0 0 0 0 0 0 0 0 0 0 0 0 0 0 0 0 0 0 0 0 0 0 0 0 0 0 0 0 0 0 0 0 0 0 0 0 0
0 0 0 0 0 0 0 0 0 0 0 0 0 0 0 0 0 0 0 0 0 0 0 0 0 0 0 0 0 0 0 0 0 0 0 0 0 0 0 0 0 0 0 0
Height
5535 5532 5530 5528 5527 5526 5525 5523 5522 5520 5519 5518 5518 5519 5519 5519 5519 5521 5524 5527 5530 5535 5540 5546 5552 5558 5565 5572 5580 5587 5594 5600 5607 5614 5621 5627 5633 5640 5646 5652 5659 5665 5671 5676
5532 5529 5526 5524 5523 5521 5520 5518 5516 5515 5514 5513 5511 5511 5511 5512 5512 5514 5516 5518 5522 5526 5530 5536 5542 5548 5554 5561 5568 5575 5582 5589 5596 5602 5608 5614 5621 5627 5634 5640 5646 5652 5658 5664
5527 5524 5522 5521 5519 5516 5515 5513 5511 5509 5509 5507 5506 5505 5505 5505 5505 5506 5508 5511 5514 5517 5521 5526 5532 5538 5544 5550 5557 5564 5571 5577 5584 5590 5596 5602 5608 5614 5620 5627 5633 5639 5646 5651
5523 5521 5518 5519 5514 5512 5510 5508 5506 5504 5503 5501 5500 5500 5499 5499 5499 5500 5501 5503 5506 5509 5513 5517 5522 5528 5534 5540 5546 5553 5559 5566 5572 5578 5584 5590 5596 5602 5608 5614 5620 5627 5633 5638
5519 5516 5514 5513 5510 5507 5505 5504 5501 5499 5498 5496 5495 5494 5494 5493 5493 5493 5494 5496 5498 5501 5505 5509 5513 5518 5523 5529 5535 5542 5548 5555 5561 5567 5573 5578 5584 5590 5595 5601 5607 5613 5619 5625
5515 5511 5509 5509 5506 5502 5501 5499 5497 5494 5492 5491 5489 5489 5489 5487 5487 5487 5488 5489 5491 5494 5497 5500 5504 5509 5514 5519 5525 5531 5537 5544 5550 5555 5561 5567 5572 5578 5583 5589 5594 5600 5606 5612
5511 5507 5505 5504 5500 5498 5497 5495 5491 5489 5487 5485 5483 5483 5482 5481 5480 5480 5481 5483 5485 5487 5490 5493 5496 5500 5505 5510 5515 5521 5527 5533 5539 5544 5549 5555 5560 5566 5571 5577 5582 5588 5594 5599
5506 5503 5503 5498 5495 5494 5491 5488 5486 5483 5481 5479 5478 5476 5475 5475 5474 5474 5475 5476 5478 5480 5482 5485 5488 5492 5496 5501 5506 5511 5517 5523 5528 5533 5538 5543 5549 5554 5559 5564 5570 5575 5580 5586
5503 5501 5496 5493 5490 5487 5485 5483 5480 5478 5476 5474 5472 5471 5470 5469 5468 5468 5469 5470 5471 5473 5475 5478 5481 5484 5488 5492 5497 5502 5507 5512 5518 5523 5527 5532 5537 5543 5547 5552 5558 5563 5568 5573
5497 5495 5491 5487 5484 5482 5479 5477 5474 5472 5470 5468 5467 5465 5464 5463 5463 5462 5463 5463 5464 5466 5468 5470 5473 5476 5480 5484 5488 5493 5497 5503 5507 5512 5517 5521 5526 5531 5536 5541 5546 5550 5555 5560
5492 5489 5486 5483 5479 5476 5473 5471 5469 5466 5464 5462 5461 5460 5458 5458 5457 5457 5457 5457 5458 5460 5461 5463 5466 5468 5472 5475 5479 5484 5488 5493 5497 5502 5507 5512 5516 5521 5525 5530 5534 5539 5543 5547
5487 5484 5480 5477 5474 5471 5468 5465 5463 5461 5459 5457 5455 5454 5453 5452 5452 5451 5451 5451 5452 5453 5455 5456 5458 5461 5464 5467 5471 5475 5479 5484 5488 5493 5497 5502 5506 5510 5514 5519 5523 5527 5531 5535
5481 5477 5474 5471 5468 5465 5462 5460 5457 5455 5453 5451 5450 5449 5448 5447 5446 5445 5445 5445 5446 5446 5448 5449 5451 5453 5456 5459 5462 5466 5470 5474 5479 5483 5487 5492 5496 5500 5505 5509 5512 5516 5520 5524
5474 5471 5468 5465 5462 5459 5456 5454 5452 5450 5448 5446 5445 5444 5442 5441 5440 5439 5439 5439 5439 5440 5441 5442 5444 5446 5448 5451 5454 5458 5462 5466 5470 5474 5478 5482 5486 5491 5495 5498 5502 5506 5509 5513
5468 5465 5462 5459 5456 5453 5450 5448 5446 5444 5443 5441 5439 5438 5437 5435 5434 5433 5433 5432 5433 5433 5434 5436 5437 5439 5441 5444 5447 5450 5454 5458 5461 5465 5469 5473 5477 5481 5485 5489 5492 5496 5499 5502
5462 5459 5456 5453 5450 5448 5445 5443 5441 5439 5437 5435 5434 5432 5430 5429 5428 5427 5426 5426 5426 5427 5427 5429 5430 5432 5434 5436 5439 5443 5446 5450 5453 5457 5460 5464 5468 5471 5475 5479 5482 5485 5489 5492
5455 5453 5450 5447 5444 5442 5439 5437 5435 5433 5431 5429 5428 5426 5424 5423 5421 5420 5419 5419 5419 5420 5421 5422 5423 5425 5427 5429 5432 5435 5439 5442 5445 5448 5452 5455 5458 5462 5465 5468 5472 5475 5478 5481
5449 5446 5443 5440 5438 5436 5433 5431 5429 5427 5425 5423 5421 5419 5418 5416 5415 5414 5413 5413 5413 5414 5414 5416 5417 5419 5420 5423 5425 5428 5431 5434 5437 5440 5443 5446 5449 5452 5455 5459 5462 5464 5467 5470
5442 5439 5436 5434 5432 5429 5427 5425 5423 5421 5419 5417 5415 5412 5411 5409 5408 5407 5406 5406 5407 5407 5408 5409 5411 5412 5414 5416 5418 5421 5424 5426 5429 5432 5435 5438 5440 5443 5446 5449 5452 5454 5457 5459
5435 5432 5429 5427 5425 5423 5421 5419 5417 5415 5412 5410 5408 5406 5404 5402 5401 5400 5399 5399 5400 5400 5401 5403 5404 5406 5407 5409 5411 5413 5416 5418 5421 5424 5426 5429 5431 5434 5437 5439 5442 5444 5447 5449
5427 5425 5422 5420 5418 5416 5414 5412 5410 5408 5405 5403 5401 5399 5397 5395 5394 5393 5393 5393 5393 5393 5395 5396 5397 5399 5400 5402 5404 5406 5408 5410 5413 5415 5418 5420 5422 5425 5427 5430 5432 5434 5437 5439
5420 5418 5415 5413 5410 5408 5406 5404 5402 5400 5398 5396 5394 5392 5390 5389 5388 5386 5386 5386 5386 5387 5388 5389 5390 5392 5393 5395 5396 5398 5400 5402 5404 5407 5409 5411 5414 5416 5418 5420 5423 5425 5427 5429
5413 5411 5408 5405 5403 5401 5399 5397 5394 5392 5390 5388 5387 5385 5383 5382 5381 5380 5379 5379 5379 5380 5381 5382 5383 5385 5386 5388 5389 5391 5393 5395 5396 5398 5400 5402 5405 5407 5409 5411 5413 5415 5417 5419
5406 5404 5401 5398 5395 5393 5391 5389 5387 5385 5383 5381 5379 5378 5376 5375 5374 5373 5372 5372 5372 5373 5374 5375 5376 5377 5379 5380 5382 5384 5385 5387 5389 5390 5392 5394 5396 5398 5400 5402 5404 5406 5408 5410
5399 5397 5394 5391 5389 5386 5384 5382 5379 5377 5375 5374 5372 5370 5369 5368 5367 5366 5365 5365 5365 5365 5366 5367 5369 5370 5371 5373 5374 5376 5377 5379 5381 5382 5384 5386 5387 5389 5391 5393 5396 5397 5399 5401
5393 5390 5388 5385 5382 5380 5377 5375 5373 5370 5368 5367 5365 5363 5362 5361 5360 5359 5358 5358 5358 5358 5359 5360 5361 5362 5363 5365 5366 5367 5369 5371 5372 5374 5376 5378 5379 5381 5383 5385 5387 5389 5390 5392
5386 5384 5381 5379 5376 5373 5371 5368 5366 5364 5362 5360 5358 5357 5355 5354 5353 5352 5352 5351 5351 5351 5352 5352 5353 5354 5355 5357 5358 5359 5361 5362 5364 5366 5368 5370 5371 5373 5375 5377 5379 5380 5382 5383
Wind_Speed
19 18 19 19 19 20 21 21 22 21 22 23 24 25 26 28 29 30 33 36 39 41 42 45 47 49 52 54 55 56 56 56 57 57 57 57 58 57 56 56 56 55 55 54
19 19 19 19 19 20 21 22 22 22 22 22 22 23 24 26 27 29 30 33 36 40 42 44 46 47 49 52 54 55 55 55 56 56 56 56 58 57 57 57 57 56 56 56
20 19 19 18 18 19 20 21 22 22 21 22 21 22 23 23 24 26 29 31 33 35 40 43 45 46 48 50 52 54 54 54 55 55 55 55 56 57 56 57 57 57 56 56
22 20 19 19 19 19 19 19 19 20 20 21 21 20 22 23 23 24 26 28 30 32 36 40 43 45 45 49 51 52 53 53 53 54 54 54 55 55 56 56 56 57 56 56
23 22 21 19 19 19 20 19 20 20 20 21 21 21 21 24 25 25 26 27 28 30 33 36 39 41 43 45 48 50 51 52 52 52 53 54 54 55 55 55 55 56 57 56
23 23 22 21 20 20 20 20 20 21 21 22 22 22 21 23 25 26 26 27 27 29 31 33 37 39 41 43 45 47 48 49 51 51 52 52 53 53 53 54 54 54 55 56
23 23 22 22 22 21 21 21 21 22 22 22 22 22 22 22 23 24 25 26 27 28 30 32 34 37 39 41 43 45 47 48 48 49 50 51 52 52 52 53 53 53 54 54
23 23 23 23 23 23 22 22 22 22 22 22 22 21 21 22 22 23 24 24 26 27 29 30 33 35 38 40 41 43 45 46 47 48 49 49 50 51 52 52 53 53 53 53
23 23 24 24 24 24 23 22 22 22 22 22 21 21 20 20 21 22 23 24 25 26 28 29 31 34 36 39 40 41 43 44 45 45 46 48 48 49 50 51 52 52 52 52
23 23 24 24 24 23 23 22 22 22 22 22 21 21 20 19 20 21 23 24 25 26 27 28 30 32 35 37 39 40 41 42 43 44 44 46 47 47 48 49 49 49 50 50
24 24 24 24 24 24 23 22 22 22 22 22 21 20 19 19 19 20 21 22 23 25 26 27 29 30 32 35 37 39 41 42 43 43 44 44 44 44 45 46 47 47 47 48
25 25 25 24 25 24 24 23 22 22 21 21 20 19 19 19 19 20 20 21 22 24 25 25 27 28 31 33 35 36 37 39 41 42 42 42 42 43 44 44 45 45 45 45
26 25 25 25 25 24 24 23 22 21 20 20 19 19 19 19 19 19 20 21 21 22 23 24 25 26 28 30 32 33 34 35 37 38 39 40 40 40 41 42 42 42 42 42
25 25 25 25 24 24 23 23 22 21 19 19 19 19 19 19 19 19 20 20 21 21 22 23 24 25 26 28 29 30 32 33 34 36 37 38 39 39 40 40 40 40 40 40
26 26 25 25 24 23 23 22 21 20 19 20 20 20 20 20 20 20 20 20 21 21 21 22 22 23 25 26 27 28 30 31 32 34 35 36 37 38 39 39 39 39 40 40
27 26 26 25 23 23 22 22 21 20 20 21 21 21 20 20 20 20 20 20 20 21 21 21 22 23 24 25 26 27 28 30 31 32 33 35 36 37 38 38 38 38 39 39
27 27 26 25 24 23 23 22 21 21 20 20 21 21 21 21 21 20 20 20 20 21 21 21 21 22 23 24 25 26 28 29 30 31 32 33 34 35 36 37 37 37 38 39
27 27 26 25 24 23 22 22 21 21 21 21 22 22 22 22 21 21 20 20 20 20 20 21 21 21 22 23 24 25 26 27 28 29 30 31 32 33 34 35 36 36 37 37
27 26 25 25 24 24 23 22 22 22 22 22 22 22 22 21 20 20 20 20 20 20 20 21 21 22 22 23 25 25 25 26 27 28 29 30 31 31 32 33 34 35 35 36
27 26 26 25 25 24 24 23 23 23 23 23 22 22 22 21 20 20 20 20 20 20 21 21 22 23 23 24 25 26 26 26 26 27 28 29 30 31 31 32 32 33 34 35
26 26 26 26 26 25 25 24 24 24 24 23 23 22 22 21 21 20 20 20 20 20 20 21 21 22 22 23 24 25 26 26 27 27 28 28 29 30 30 31 31 32 32 33
26 26 26 26 26 25 25 25 24 25 24 24 23 22 22 21 21 21 21 21 21 21 21 21 22 22 22 22 23 24 25 26 27 27 27 28 28 29 29 30 31 31 32 32
26 26 26 25 25 24 24 24 24 24 24 23 23 23 22 22 22 21 21 22 22 22 22 22 22 23 23 23 23 24 24 25 26 27 27 28 28 28 29 29 30 30 31 31
25 25 25 25 24 24 24 24 23 23 23 22 22 22 22 22 22 22 22 22 22 23 23 23 23 23 23 23 24 24 25 25 25 25 26 27 27 27 28 28 28 29 30 30
25 25 24 24 23 23 23 23 23 23 22 22 22 22 21 21 21 21 21 21 22 22 23 24 24 24 24 24 24 25 25 25 25 24 25 25 26 26 27 27 27 28 28 29
24 24 24 23 23 23 22 22 22 22 22 21 21 21 21 21 21 20 21 21 21 22 23 23 24 24 24 24 24 25 25 26 26 25 25 25 25 26 26 26 26 26 27 27
23 23 23 23 23 22 22 22 21 21 21 21 21 20 20 20 21 21 21 20 21 21 22 22 23 24 24 24 24 24 24 25 25 25 25 25 25 25 26 26 26 26 26 26
Wind_Direction
310 305 296 294 292 286 285 289 289 286 283 277 268 263 261 259 256 250 245 242 239 235 233 230 230 230 230 230 230 231 232 233 234 234 234 235 235 236 236 237 238 239 240 241
310 305 300 297 294 290 289 290 288 287 286 284 275 267 262 258 255 250 246 243 240 237 234 231 230 230 231 230 230 231 232 233 234 235 235 237 237 237 237 238 238 239 241 242
316 309 304 298 299 296 293 293 288 286 286 285 279 270 267 262 257 252 247 243 240 238 235 232 231 231 231 231 231 231 232 233 234 235 235 236 237 237 237 238 239 240 241 242
320 314 309 305 300 299 298 297 292 288 285 284 279 273 268 264 260 255 252 247 241 239 236 234 232 231 233 232 231 231 232 233 234 235 235 236 237 238 238 238 239 240 241 242
317 315 313 310 305 301 300 296 294 293 288 286 279 273 268 264 260 258 255 250 245 242 237 233 231 231 233 232 231 232 232 233 234 235 236 236 237 238 239 239 240 240 241 242
315 313 314 315 310 305 303 299 296 295 292 287 283 276 270 266 262 259 256 252 248 245 240 235 231 231 231 232 232 232 232 233 234 235 237 237 237 238 239 240 240 241 241 242
312 311 312 313 311 308 305 303 300 297 294 289 284 280 274 269 265 260 256 252 249 246 242 238 233 232 231 231 232 231 232 233 234 236 238 238 238 238 240 241 241 242 243 243
312 310 312 311 308 306 305 303 300 297 294 289 285 282 277 271 267 262 255 252 249 245 241 239 237 234 232 231 231 231 232 233 234 237 238 238 239 240 240 241 242 243 244 244
313 312 312 309 306 304 303 300 299 297 293 290 285 282 279 274 268 263 258 253 249 245 242 240 239 236 234 233 231 231 232 232 234 237 238 238 238 239 240 241 243 244 244 245
313 312 311 308 305 304 303 300 297 296 293 288 284 282 280 276 272 267 261 255 249 245 242 242 240 238 236 234 233 233 232 232 234 236 237 238 238 239 240 241 242 243 244 245
311 310 309 307 305 304 303 301 299 295 292 288 283 282 281 277 273 271 264 258 253 248 245 244 242 241 239 237 235 234 234 234 235 236 237 238 239 240 241 242 242 244 245 246
311 310 309 307 305 305 304 302 301 297 293 289 284 282 281 280 279 274 267 260 256 252 249 245 242 242 241 240 237 236 235 235 236 237 238 239 240 240 241 242 243 243 244 245
311 310 309 308 305 304 304 302 301 299 295 289 285 282 283 284 282 276 268 262 260 255 251 247 244 243 243 241 237 235 234 234 235 236 237 238 238 239 240 241 242 243 244 245
310 310 311 309 306 303 302 302 301 298 294 289 287 285 283 283 282 277 271 267 261 255 250 247 245 243 241 239 237 235 235 235 235 236 237 238 238 238 239 240 241 243 243 244
308 309 310 309 307 304 302 302 301 298 294 291 288 287 285 284 282 278 273 269 263 257 252 248 246 244 241 238 237 236 236 236 236 237 238 239 240 240 240 240 242 243 244 246
307 307 308 306 305 303 303 303 301 298 295 292 291 289 286 284 282 278 274 268 263 258 254 251 248 246 243 240 238 237 237 237 237 238 239 240 241 241 242 242 244 245 246 247
306 305 304 303 302 301 300 300 299 299 296 293 291 289 287 285 282 279 274 268 264 259 255 251 249 246 243 240 238 237 237 237 237 238 239 240 241 242 242 243 245 246 247 249
305 304 303 302 302 301 300 300 299 298 296 294 291 289 288 285 282 278 274 268 264 260 255 251 248 246 243 241 239 238 238 239 239 239 240 240 241 242 243 244 245 246 247 248
303 302 300 299 299 299 300 301 300 300 299 297 295 292 288 285 282 278 274 268 263 260 256 252 249 248 245 242 241 240 240 241 241 241 241 241 242 242 243 244 245 246 246 248
301 299 298 298 297 296 298 299 300 301 301 300 296 293 289 285 281 278 273 267 263 260 256 254 252 250 248 246 244 241 241 242 242 242 243 243 244 244 245 245 246 247 247 248
301 300 298 297 296 295 295 296 297 298 299 299 297 293 289 285 281 278 274 268 264 260 256 254 253 252 250 249 246 244 242 243 244 245 245 245 246 246 247 247 247 248 248 249
302 301 300 298 296 295 295 295 295 295 295 295 294 292 289 285 281 278 274 268 263 260 257 255 253 251 251 250 248 246 246 246 246 247 247 247 248 248 248 249 249 250 250 250
302 302 302 301 298 297 296 295 295 295 294 293 291 289 287 284 281 278 275 269 263 260 258 256 254 252 251 250 249 248 247 248 248 248 248 249 249 249 250 250 249 250 250 252
303 302 302 302 300 298 298 296 295 294 293 292 290 288 285 283 281 278 275 269 264 260 257 256 255 254 253 252 251 249 248 248 249 250 249 247 247 248 249 249 250 250 251 252
304 304 304 303 302 301 300 298 296 294 292 291 290 289 286 284 282 279 275 271 265 261 259 257 256 255 254 254 252 250 249 249 250 250 249 248 248 248 248 249 250 251 252 252
304 305 305 305 304 304 303 301 299 296 295 293 292 289 286 284 282 280 275 270 267 264 262 259 256 255 254 254 253 252 251 250 249 249 249 249 248 248 248 249 250 251 253 253
304 305 306 306 306 305 304 303 301 299 297 295 293 291 288 285 284 282 278 273 270 267 263 260 256 254 254 254 253 252 252 251 250 249 249 249 249 250 250 251 251 251 252 253